Temperature
14 14 14 14 14 14 14 14 13 13 13 13 13 12 12 12 12 12 12 12 12 12 12 12 12 12 12 12 12 11 11 11 11 11 10 10 10 10
14 14 14 14 14 14 14 13 13 13 13 13 13 12 12 12 12 12 12 12 12 12 12 12 12 12 11 11 11 11 11 11 11 11 10 10 10 10
14 14 14 14 14 14 13 13 13 13 13 13 12 12 12 12 12 12 12 12 12 12 12 12 12 11 11 11 11 11 11 11 11 10 10 10 10 10
14 14 14 14 14 13 13 13 13 13 13 13 12 12 12 12 12 12 11 11 11 11 11 11 11 11 11 11 11 11 11 11 10 10 10 10 10 9
14 14 14 14 13 13 13 13 13 13 13 13 12 12 12 12 11 11 11 11 11 11 11 11 11 11 11 11 11 11 10 10 10 10 10 10 9 9
13 14 14 13 13 13 13 13 13 13 13 12 12 12 12 11 11 11 11 11 11 10 11 11 11 11 11 11 11 10 10 10 10 10 10 9 9 9
13 13 13 13 13 13 13 13 13 13 12 12 12 11 11 11 11 11 11 11 10 10 10 10 10 10 10 10 10 10 10 10 10 10 9 9 9 9
13 13 13 13 13 13 13 13 13 12 12 12 12 11 11 11 11 11 11 10 10 10 10 10 10 10 10 10 10 10 10 9 9 9 9 9 9 8
13 13 13 13 13 13 13 13 13 12 12 12 12 12 11 11 11 11 11 10 10 10 10 10 9 9 9 9 9 9 9 9 9 9 9 8 8 8
13 13 13 13 13 13 12 12 12 12 12 12 12 12 11 11 11 11 11 10 10 10 9 9 9 9 9 9 9 9 9 9 8 8 8 8 8 8
12 12 12 12 12 12 12 12 12 12 12 12 12 12 11 11 11 11 10 10 10 10 9 9 9 9 9 9 9 9 8 8 8 8 8 7 7 7
12 12 12 12 12 12 12 12 12 12 12 11 11 11 11 11 11 11 10 10 10 9 9 9 9 9 8 8 8 8 8 8 8 8 7 7 7 7
12 12 12 12 12 12 12 12 12 11 11 11 11 11 11 10 10 10 10 10 10 9 9 9 9 8 8 8 8 8 8 7 7 7 7 7 6 6
11 12 12 12 12 11 11 11 11 11 11 11 10 10 10 10 10 10 10 9 9 9 9 9 8 8 8 8 7 7 7 7 7 7 6 6 6 6
11 11 11 11 11 11 11 11 11 11 10 10 10 10 10 10 9 9 9 9 9 9 8 8 8 8 8 7 7 7 7 7 6 6 6 6 6 5
11 11 11 10 10 10 10 10 10 10 10 10 10 9 9 9 9 9 9 8 8 8 8 8 8 7 7 7 7 6 6 6 6 6 5 5 5 5
10 10 10 10 10 10 10 10 10 9 9 9 9 9 9 8 8 8 8 8 8 8 7 7 7 7 7 6 6 6 6 6 5 5 5 5 5 4
10 10 9 9 9 9 9 9 9 9 9 9 8 8 8 8 8 8 8 7 7 7 7 7 7 6 6 6 6 6 5 5 5 5 4 4 4 4
9 9 9 9 9 9 9 8 8 8 8 8 8 8 8 8 8 7 7 7 7 7 7 6 6 6 6 6 6 5 5 5 5 4 4 4 4 4
9 9 8 8 8 8 8 8 8 8 8 8 8 8 7 7 7 7 7 7 7 6 6 6 6 6 6 5 5 5 5 4 4 4 4 4 4 4
8 8 8 8 8 8 8 8 7 7 7 7 7 7 7 7 7 7 7 6 6 6 6 6 6 5 5 5 4 5 5 4 4 4 3 3 3 3
8 8 7 7 7 7 7 7 7 7 7 7 7 7 6 6 6 6 6 6 6 6 5 5 5 5 4 4 4 4 4 4 4 3 3 3 3 2
7 7 7 7 7 6 6 6 6 6 6 6 6 6 6 6 6 6 5 5 5 5 5 5 4 4 4 4 4 4 3 3 3 3 3 3 2 2
Wind_Speed
1 1 1 1 1 1 2 2 3 1 0 1 1 2 6 8 8 7 6 7 7 6 6 6 6 6 6 6 6 6 6 6 6 6 6 6 6 5
1 1 1 1 2 1 1 1 2 3 1 0 1 2 4 6 7 7 7 8 7 6 6 6 6 6 6 6 6 6 6 6 6 6 5 5 5 4
0 2 2 2 2 1 1 1 2 3 2 1 1 2 3 4 5 5 7 7 6 6 6 6 5 5 5 5 4 5 6 6 5 4 4 4 4 3
1 1 2 2 2 1 1 1 2 2 3 2 0 1 2 3 4 3 4 5 6 6 7 6 5 5 4 4 4 4 5 5 4 4 3 3 2 2
0 1 1 2 2 1 1 1 1 2 3 3 1 1 1 1 2 2 2 2 4 5 7 7 6 5 4 4 3 3 4 4 3 3 3 2 2 2
1 1 2 2 2 1 1 1 2 2 3 2 2 1 1 1 2 1 0 0 1 3 5 6 6 5 5 4 4 3 3 3 3 2 2 2 1 1
0 1 2 3 3 2 2 2 2 2 2 2 2 1 1 1 2 2 2 1 0 1 2 3 4 4 4 5 4 4 4 3 3 2 2 2 2 1
0 1 1 2 3 3 3 3 3 3 3 3 2 2 3 2 2 2 2 2 1 1 2 1 3 3 4 5 6 6 6 5 4 3 3 2 2 1
1 1 1 2 2 1 2 2 2 1 3 4 3 3 3 3 3 2 2 2 3 3 2 1 1 2 4 6 7 8 7 6 5 4 3 3 2 2
1 1 2 2 2 2 2 1 1 2 2 3 3 3 2 2 3 4 4 2 0 0 3 1 1 2 2 5 8 9 9 8 7 6 4 3 3 3
2 1 2 2 2 3 2 2 1 2 2 3 4 4 3 2 2 2 2 2 1 1 1 2 1 1 1 2 6 8 8 8 7 6 5 4 3 3
1 0 2 2 2 3 2 3 2 2 1 1 1 2 3 3 3 3 3 3 2 2 2 2 1 1 1 1 2 5 5 5 6 6 6 5 4 3
1 1 1 2 2 2 2 2 3 2 2 2 2 1 1 2 2 2 2 3 3 2 2 2 1 1 1 1 1 3 4 3 4 5 7 7 6 4
1 1 2 3 2 2 2 2 2 1 1 1 1 1 1 1 2 2 2 2 3 3 3 3 2 2 1 1 2 1 2 4 4 4 4 6 7 8
1 2 2 3 3 2 3 3 2 1 1 2 2 2 2 2 2 2 2 1 1 2 2 3 2 2 2 2 2 2 1 2 3 3 3 4 4 5
1 1 2 3 2 2 2 2 2 2 3 3 2 2 1 1 2 1 1 1 1 1 1 2 3 2 2 2 2 2 2 2 2 3 3 3 5 6
1 0 0 1 2 2 2 2 2 2 3 2 2 2 2 2 2 1 1 1 1 2 2 2 2 2 3 2 2 3 3 2 2 2 2 3 3 5
3 2 2 3 3 4 3 3 3 3 3 3 3 3 3 3 3 2 2 2 2 3 2 2 1 1 1 2 4 3 3 3 3 2 2 3 4 4
3 3 4 4 4 3 3 3 3 3 3 3 3 3 3 3 3 3 3 3 3 3 3 3 2 2 3 4 4 5 4 3 2 2 3 3 5 5
3 4 4 3 3 3 3 3 3 3 2 2 3 3 3 3 3 3 3 4 3 3 2 2 3 4 5 4 3 3 7 5 3 4 4 3 4 5
4 4 3 3 3 3 3 3 3 3 3 2 3 3 3 2 3 3 3 4 3 3 4 4 4 5 3 1 2 3 3 7 6 4 3 3 3 3
4 4 4 3 3 3 3 3 2 2 3 3 3 3 2 2 2 3 3 3 3 3 4 3 2 2 2 3 5 5 4 3 6 8 7 6 3 4
4 4 4 3 3 2 2 3 3 3 2 3 2 2 2 2 2 2 2 2 2 3 3 2 2 2 3 4 4 4 4 3 2 3 5 10 11 12
Wind_Direction
85 93 94 96 77 73 104 135 141 131 48 150 102 117 126 129 140 136 129 129 121 110 100 94 88 82 85 83 84 93 102 105 101 95 90 89 87 87
98 100 88 82 85 81 94 81 102 134 144 138 132 125 127 137 147 143 135 135 136 127 117 106 101 96 92 85 83 89 99 106 106 102 95 90 84 80
246 149 129 107 94 87 100 81 83 108 125 43 91 95 106 111 120 143 143 143 143 148 142 134 123 113 106 99 92 93 97 97 97 96 93 91 87 82
229 134 128 118 107 86 93 115 118 123 131 133 75 93 106 129 133 135 143 149 147 158 162 158 148 133 121 112 103 103 100 98 98 103 101 93 85 76
101 104 124 124 136 140 138 129 132 130 128 139 155 129 114 131 115 113 113 124 162 163 170 172 168 158 147 139 129 121 114 109 108 113 119 107 91 76
63 86 94 108 139 161 157 150 133 130 132 137 154 160 161 180 127 138 87 30 178 160 159 170 180 178 172 167 162 155 143 132 128 127 136 137 132 108
64 85 103 108 116 126 138 143 135 141 143 149 169 163 174 150 180 188 183 189 291 137 139 163 166 163 169 182 185 176 166 158 155 153 159 163 160 151
228 210 175 124 108 109 116 120 137 163 175 169 181 187 204 195 191 189 179 161 259 259 148 201 160 166 159 158 173 178 180 178 174 170 165 161 164 172
234 208 193 142 127 139 142 145 140 166 177 174 186 208 207 201 178 181 184 183 212 212 148 228 190 180 173 169 177 181 184 187 187 183 179 183 197 212
195 203 186 186 177 161 173 164 184 210 203 188 191 208 210 194 182 189 192 194 234 134 130 200 233 213 187 178 187 188 188 192 192 190 193 200 212 225
199 192 170 173 166 152 169 190 205 242 210 181 186 197 196 186 169 144 159 157 222 252 189 172 235 237 227 197 191 188 187 191 193 196 201 207 219 228
195 161 156 160 163 155 174 183 196 225 201 175 201 221 198 190 181 167 173 177 192 231 226 165 216 137 289 249 178 180 188 201 208 211 215 220 230 240
209 192 161 128 146 161 174 186 204 210 207 189 190 199 177 160 160 166 167 169 184 220 205 157 184 172 197 250 228 191 177 189 209 224 228 233 241 230
223 206 196 172 170 196 203 208 214 197 184 177 170 173 170 174 185 171 179 179 191 203 187 156 169 182 192 241 255 239 208 204 199 204 215 238 245 244
222 188 191 196 192 207 205 205 206 193 181 188 210 213 200 185 169 167 178 183 250 238 194 172 170 188 187 208 228 232 242 238 203 200 212 223 233 237
275 195 184 192 204 209 205 210 211 209 193 201 209 207 185 164 170 165 166 171 209 285 242 214 195 182 204 223 216 237 230 233 237 219 213 232 246 236
175 114 210 198 199 210 211 215 212 212 214 209 198 200 195 187 193 182 169 169 200 223 245 263 231 204 202 198 225 239 238 246 242 228 229 251 246 240
161 194 217 218 214 213 215 214 211 209 212 207 204 202 199 201 203 196 191 199 215 224 220 215 203 330 334 287 225 221 226 239 248 235 222 240 259 256
188 216 223 226 226 219 215 211 214 215 208 206 209 209 204 203 200 200 202 210 223 224 220 200 188 186 223 260 272 223 219 238 237 241 234 233 250 257
211 225 229 227 227 224 220 215 215 211 207 212 218 216 207 204 205 205 206 211 220 229 234 212 202 204 216 230 246 254 233 223 223 236 247 250 259 268
221 228 231 226 225 222 222 216 209 206 207 205 209 211 211 208 211 210 209 217 214 219 226 231 232 221 210 194 265 272 259 236 231 227 229 246 270 274
225 225 228 229 224 219 214 211 210 208 207 209 210 209 203 200 213 214 210 213 218 223 235 240 221 187 185 222 250 262 267 267 256 261 257 242 225 238
220 221 220 220 223 220 213 212 212 215 207 205 208 211 209 208 214 218 224 225 222 221 226 232 228 214 218 225 243 260 268 271 264 269 275 270 262 264
Height
1539 1539 1540 1540 1540 1541 1541 1542 1542 1542 1543 1543 1543 1543 1543 1543 1542 1542 1542 1542 1542 1542 1542 1542 1541 1541 1541 1541 1541 1542 1542 1542 1543 1544 1544 1544 1545 1545
1538 1539 1539 1540 1540 1540 1541 1541 1541 1542 1542 1542 1543 1543 1543 1543 1542 1542 1542 1542 1542 1541 1541 1541 1541 1541 1541 1541 1541 1541 1541 1542 1542 1543 1543 1544 1544 1544
1537 1538 1538 1539 1539 1539 1540 1540 1541 1541 1541 1542 1543 1543 1543 1542 1542 1542 1541 1541 1541 1541 1541 1541 1541 1541 1540 1541 1541 1540 1541 1541 1541 1542 1542 1542 1543 1543
1536 1537 1537 1537 1538 1538 1539 1539 1539 1540 1540 1540 1541 1542 1542 1542 1542 1541 1541 1541 1541 1541 1541 1541 1540 1540 1540 1540 1540 1540 1540 1541 1541 1541 1541 1541 1541 1542
1535 1535 1536 1536 1536 1537 1538 1538 1538 1539 1539 1539 1540 1541 1541 1541 1541 1541 1541 1540 1540 1540 1540 1540 1540 1540 1540 1540 1540 1540 1540 1540 1540 1539 1540 1540 1540 1540
1534 1534 1534 1535 1535 1536 1536 1537 1537 1537 1538 1538 1539 1539 1540 1540 1540 1540 1540 1540 1540 1540 1539 1539 1539 1539 1539 1539 1539 1539 1539 1539 1538 1538 1538 1538 1538 1538
1532 1533 1533 1533 1533 1534 1535 1535 1535 1536 1536 1537 1537 1538 1538 1538 1538 1539 1539 1539 1539 1539 1539 1538 1538 1538 1538 1538 1538 1538 1537 1537 1537 1537 1537 1537 1537 1536
1531 1531 1531 1531 1532 1532 1533 1533 1534 1534 1535 1535 1535 1536 1536 1536 1537 1537 1537 1537 1537 1538 1537 1537 1537 1536 1536 1536 1536 1536 1536 1536 1535 1535 1535 1535 1535 1534
1529 1529 1529 1529 1530 1530 1531 1531 1532 1532 1533 1533 1533 1533 1534 1534 1535 1534 1535 1535 1535 1535 1535 1535 1535 1535 1535 1535 1535 1534 1534 1534 1534 1533 1533 1533 1532 1532
1526 1527 1527 1527 1528 1528 1528 1529 1529 1530 1530 1531 1531 1531 1532 1532 1532 1533 1533 1533 1533 1533 1533 1533 1533 1533 1533 1532 1532 1532 1532 1531 1531 1531 1530 1530 1529 1529
1524 1524 1524 1525 1525 1526 1526 1526 1526 1527 1528 1528 1528 1529 1529 1529 1530 1530 1530 1530 1529 1530 1530 1530 1530 1530 1530 1530 1529 1529 1529 1528 1528 1527 1527 1526 1526 1525
1521 1521 1522 1522 1522 1523 1523 1523 1523 1524 1524 1525 1525 1525 1526 1526 1527 1527 1527 1527 1526 1526 1527 1527 1526 1526 1526 1526 1526 1526 1526 1525 1525 1524 1524 1523 1523 1522
1517 1518 1518 1519 1519 1519 1520 1520 1520 1521 1521 1521 1521 1522 1522 1523 1523 1524 1524 1524 1524 1523 1523 1523 1523 1523 1523 1523 1522 1522 1522 1522 1521 1521 1520 1520 1519 1519
1513 1514 1515 1515 1515 1516 1516 1517 1517 1518 1518 1518 1518 1518 1519 1519 1520 1520 1520 1520 1520 1520 1520 1520 1520 1519 1519 1519 1518 1518 1518 1518 1518 1517 1517 1516 1515 1515
1510 1510 1511 1512 1512 1512 1513 1513 1513 1514 1514 1514 1515 1515 1516 1516 1516 1517 1517 1517 1517 1517 1517 1517 1516 1516 1516 1515 1514 1514 1514 1514 1514 1513 1512 1512 1511 1510
1506 1507 1507 1508 1508 1509 1509 1509 1510 1510 1510 1510 1511 1512 1512 1513 1513 1513 1513 1513 1513 1513 1513 1513 1512 1512 1511 1511 1511 1510 1510 1510 1510 1509 1508 1507 1507 1506
1502 1502 1503 1503 1504 1504 1505 1505 1506 1506 1507 1507 1507 1508 1508 1509 1509 1509 1509 1509 1509 1509 1509 1509 1509 1508 1508 1508 1507 1506 1506 1506 1505 1505 1504 1502 1502 1501
1498 1498 1498 1498 1499 1500 1500 1501 1502 1502 1503 1503 1503 1504 1504 1504 1505 1505 1505 1505 1505 1505 1505 1505 1505 1505 1504 1503 1504 1503 1502 1501 1501 1500 1500 1498 1497 1497
1493 1493 1493 1494 1494 1495 1496 1496 1497 1498 1498 1499 1499 1500 1500 1500 1501 1501 1501 1501 1501 1501 1501 1501 1501 1500 1499 1498 1498 1499 1498 1497 1496 1496 1495 1494 1492 1492
1488 1489 1489 1489 1490 1490 1491 1492 1492 1493 1494 1494 1495 1495 1496 1496 1496 1496 1496 1496 1497 1497 1497 1496 1496 1496 1495 1495 1494 1494 1494 1493 1492 1491 1490 1489 1488 1487
1484 1484 1485 1485 1485 1486 1487 1487 1488 1488 1489 1489 1489 1490 1490 1491 1491 1491 1491 1492 1492 1492 1491 1491 1491 1492 1491 1491 1490 1488 1489 1489 1488 1486 1485 1484 1482 1481
1479 1480 1480 1481 1481 1481 1482 1482 1483 1483 1484 1484 1484 1485 1485 1486 1486 1486 1486 1487 1487 1487 1486 1487 1487 1487 1486 1485 1484 1483 1483 1483 1482 1482 1481 1480 1478 1475
1474 1475 1475 1475 1476 1476 1476 1477 1477 1478 1478 1479 1479 1480 1480 1480 1481 1481 1481 1482 1482 1482 1482 1482 1482 1481 1481 1480 1480 1479 1478 1477 1477 1476 1475 1475 1474 1473